Location: Sluknov
(51.0170°N, 14.4670°E)
Time: 11:07:43
(UTC+01:00)

ISS - Pass Details

Date: 23 February 2026
Orbit: 416 x 426 km, 51.6° (Epoch: 10 March)

Event Time Altitude Azimuth Distance (km) Brightness Sun altitude
Exits shadow 05:49:06 20° 279° (W) 1,043 -2.4 -11.8°
Maximum altitude 05:51:20 81° 5° (N) 427 -3.8 -11.4°
Drops below altitude 10° 05:54:41 10° 93° (E) 1,492 0.7 -10.9°
Sets 05:56:46 0° 95° (E) 2,354 2.4 -10.6°
